Regional Weather Roundup
Issued by NWS

Home | Current Version | Previous Version | Graphics & Text | Print | Product List | Glossary On
Versions: 1 2 3 4 5 6 7 8 9 10 11 12 13 14 15 16 17 18 19 20 21 22 23 24 25 26 27 28 29 30 31 32 33 34 35 36 37 38 39 40 41 42 43 44 45 46 47 48 49 50
000
ASUS43 KMKX 251411
RWRWI

WISCONSIN REGIONAL WEATHER ROUNDUP
NATIONAL WEATHER SERVICE MILWAUKEE/SULLIVAN WI
900 AM CDT THU AUG 25 2016

NOTE: "FAIR" INDICATES FEW OR NO CLOUDS BELOW 12,000 FEET WITH NO
SIGNIFICANT WEATHER AND/OR OBSTRUCTIONS TO VISIBILITY.

WIZ001-002-006>008-014>016-023>028-251500-
NORTHWEST WISCONSIN

CITY           SKY/WX    TMP DP  RH WIND       PRES   REMARKS
SUPERIOR ARPT  SUNNY     64  57  79 W8        29.94F
ASHLAND        SUNNY     65  57  75 W12       29.95F
HAYWARD        SUNNY     63  58  83 S6        29.99S
SIREN          SUNNY     65  56  70 W7        29.98S
CUMBERLAND     SUNNY     63  59  88 SW6       30.00S
RICE LAKE      SUNNY     65  59  81 SW5       30.01F
CHETEK         NOT AVBL
LADYSMITH      SUNNY     65  60  84 SW3       30.02F
EAU CLAIRE     SUNNY     68  60  75 W7        30.01S
MENOMONIE      SUNNY     69  60  72 SW6       30.01F
NEW RICHMOND   SUNNY     67  61  80 SW7       30.00F
OSCEOLA        SUNNY     66  65  94 W7        30.03S
$$

WIZ003>005-009-010-017-018-251500-
NORTH CENTRAL WISCONSIN

CITY           SKY/WX    TMP DP  RH WIND       PRES   REMARKS
MANITOWISH WTR NOT AVBL
ARBOR VITAE    SUNNY     64  59  83 W6        30.00S
WOODRUFF       SUNNY     64  59  83 W6        30.00S
RHINELANDER    SUNNY     65  58  78 W10       30.00F
EAGLE RIVER    SUNNY     65  57  77 W10       29.99S
LAND O LAKES   SUNNY     65  57  75 W5        29.99F
PHILLIPS       SUNNY     63  58  81 W3        30.00S
TOMAHAWK       SUNNY     64  58  80 W7        30.01F
MEDFORD        SUNNY     64  61  91 W7        30.01S
MERRILL        SUNNY     64  59  83 W6        30.01F
$$

WIZ029-030-035-036-043>047-251500-
CENTRAL WISCONSIN

CITY           SKY/WX    TMP DP  RH WIND       PRES   REMARKS
WAUSAU         CLOUDY    64  58  80 W5        30.00S
MOSINEE        SUNNY     64  61  88 NW8       30.02S
MARSHFIELD     PTSUNNY   66  59  78 NW7       30.02R
STEVENS POINT  PTSUNNY   64  58  78 NW5       30.02S
WAUPACA        MOSUNNY   70  61  72 W3        30.01S
WAUTOMA        MOSUNNY   65  61  87 NW5       30.03S
WISC RAPIDS    MOSUNNY   66  61  84 W3        30.03S
CAMP DOUGLAS   PTSUNNY   66  61  82 NW2       30.03S
$$

WIZ011>013-019>022-031-037>040-048>050-251500-
NORTHEAST WISCONSIN

CITY           SKY/WX    TMP DP  RH WIND       PRES   REMARKS
ANTIGO         SUNNY     64  59  85 NW6       30.02S
SHAWANO        PTSUNNY   69  61  75 W6        30.00R
OCONTO         NOT AVBL
STURGEON BAY   CLOUDY    68  61  78 NW8       29.98S
GREEN BAY      CLOUDY    67  63  87 NW8       29.99R
MANITOWOC      CLOUDY    68  62  81 NW8       29.98F
APPLETON       PTSUNNY   66  63  88 NW8       29.99S
CLINTONVILLE   CLOUDY    68  59  73 NW6       30.00S
OSHKOSH        MOSUNNY   68  61  78 NW7       30.00R
$$

WIZ032>034-041-042-053>061-251500-
SOUTHWEST WISCONSIN

CITY           SKY/WX    TMP DP  RH WIND       PRES   REMARKS
LA CROSSE      PTSUNNY   68  32  26 S3        30.03S
SPARTA         CLOUDY    62  61  95 CALM      30.04S
VIROQUA        PTSUNNY   64  62  92 W3        30.06R
BOSCOBEL       SUNNY     71  63  75 CALM      30.05R
PRAIRIE DU CHI SUNNY     68  60  76 CALM      30.05R
PLATTEVILLE    SUNNY     69  64  85 N8        30.05S
$$

WIZ056-057-062-063-064-067-068-251500-
SOUTH CENTRAL WISCONSIN

CITY           SKY/WX    TMP DP  RH WIND       PRES   REMARKS
REEDSBURG      NOT AVBL
BARABOO/DELLS  PTSUNNY   66  60  79 NW3       30.04R
LONE ROCK      MOSUNNY   71  62  73 NW3       30.04S
MINERAL POINT  SUNNY     70  63  78 NW5       30.05S
MADISON        PTSUNNY   70  61  73 NW5       30.02S
MIDDLETON      PTSUNNY   71  62  75 N5        30.04S
WATERTOWN      CLOUDY    66  62  87 NW5       30.01S
MONROE         MOSUNNY   70  61  73 N8        30.03F
JANESVILLE     MOSUNNY   72  64  78 NW7       30.01S
$$

WIZ051-052-058>065-066-070>072-251500-
SOUTHEAST WISCONSIN

CITY           SKY/WX    TMP DP  RH WIND       PRES   REMARKS
MILWAUKEE      PTSUNNY   72  67  84 NW12      29.99R
WAUKESHA       PTSUNNY   66  63  88 W9        30.02R
MILWAUKEE/TIMM MOSUNNY   70  63  78 NW7       30.00S
RACINE         CLOUDY    71  67  87 VRB6      30.01R
BURLINGTON     PTSUNNY   68  65  89 NW10      30.00R
KENOSHA        CLOUDY    72  68  87 NW5       30.00R
FOND DU LAC    PTSUNNY   69  61  75 CALM      30.01R
SHEBOYGAN      CLOUDY    69  62  78 NW7       29.99S
WEST BEND      MOSUNNY   66  61  82 NW5       30.01R
JUNEAU         CLOUDY    66  61  82 NW6       30.03R
$$

LSZ147-162-251500-
LAKE SUPERIOR

STATION/POSITION TIME  TEMP    WIND        PRES    WAVE
                       AIR SEA DIR/SP/G            HT/PER
                 (UTC) (F)     (DEG/KT/KT) (MB)    (FT/S)
W MID LAKE BUOY  1350   67 68  250/ 19/ 21 1011.5F   3/ 4
DEVILS ISLAND    1300   64     240/ 17/ 21 1013.2S
PORT WING        1300   63     220/  6/  9 1014.2
SAXON HARBOR     1300   64     200/  8/ 13 1013.9
$$

LMZ867-665-643>646-251500-
LAKE MICHIGAN

STATION/POSITION TIME  TEMP    WIND        PRES    WAVE
                       AIR SEA DIR/SP/G            HT/PER
                 (UTC) (F)     (DEG/KT/KT) (MB)    (FT/S)
CHAMBERS ISLAND  1300   66     250/  3/  7 1014.2
S GREEN BAY BUOY 1300   67 72  280/ 12/ 14 1014.3
N MID LAKE BUOY  1350   68 70  280/ 12/ 14 1012.9F   2/ 6
NORTHPORT PIER   1300   69     300/  5/ 11 1013.9
SISTER BAY       1337   68     330/ 12/ 14   N/A
KEWAUNEE LAKESHO 1300   67     290/  5/  9 1014.6R
SHEBOYGAN LAKESH 1400   69     310/ 12/ 14 1014.6S
PORT WASHINGTON  1300   71     300/  6/ 10 1015.6F
ATWATER BUOY     1400   62 53  310/  6/  8   N/A
MILWAUKEE LAKESH 1310   71     310/  7/ 10   N/A
S MID LAKE BUOY  1350   73 74  350/  8/ 10 1014.4R   1/ 4
KENOSHA   LAKESH 1400   71     310/  6/  8 1015.2R
$$

TC  - TEMPERATURE IN CELSIUS
VSB - VISIBILITY IN STATUTE MILES
WCI - WIND CHILL INDEX
HX  - HEAT INDEX





USA.gov is the U.S. government's official web portal to all federal, state and local government web resources and services.